Time,TemperatureF,DewpointF,PressureIn,WindDirection,WindDirectionDegrees,WindSpeedMPH,WindSpeedGustMPH,Humidity,HourlyPrecipIn,Conditions,Clouds,dailyrainin,SoftwareType,DateUTC
2013-01-13 00:00:00,39.0,37.0,-100.00,WNW,297,2.0,-999.0,92,0.00,,,2.87,,2013-01-13 06:00:00,
2013-01-13 00:32:00,39.0,37.0,-100.00,WNW,297,2.0,-999.0,92,0.00,,,2.87,,2013-01-13 06:32:00,
2013-01-13 00:42:00,39.0,37.0,-100.00,WNW,297,2.0,-999.0,92,0.00,,,2.87,,2013-01-13 06:42:00,
2013-01-13 00:52:00,39.0,37.0,-100.00,WNW,297,2.0,-999.0,92,0.00,,,2.87,,2013-01-13 06:52:00,
2013-01-13 01:00:00,39.0,36.0,-100.00,WNW,292,3.0,-999.0,90,0.00,,,2.87,,2013-01-13 07:00:00,
2013-01-13 01:32:00,39.0,36.0,-100.00,WNW,292,3.0,-999.0,90,0.00,,,2.87,,2013-01-13 07:32:00,
2013-01-13 01:42:00,39.0,36.0,-100.00,WNW,292,3.0,-999.0,90,0.00,,,2.87,,2013-01-13 07:42:00,
2013-01-13 01:52:00,39.0,36.0,-100.00,WNW,292,3.0,-999.0,90,0.00,,,2.87,,2013-01-13 07:52:00,
2013-01-13 02:00:00,38.0,35.0,-100.00,WNW,301,5.0,-999.0,89,0.00,,,2.87,,2013-01-13 08:00:00,
2013-01-13 02:32:00,38.0,35.0,-100.00,WNW,301,5.0,-999.0,89,0.00,,,2.87,,2013-01-13 08:32:00,
2013-01-13 02:42:00,38.0,35.0,-100.00,WNW,301,5.0,-999.0,89,0.00,,,2.87,,2013-01-13 08:42:00,
2013-01-13 02:53:00,38.0,35.0,-100.00,WNW,301,5.0,-999.0,89,0.00,,,2.87,,2013-01-13 08:53:00,
2013-01-13 03:00:00,39.0,35.0,-100.00,WNW,301,1.0,-999.0,87,0.00,,,2.87,,2013-01-13 09:00:00,
2013-01-13 03:32:00,39.0,35.0,-100.00,WNW,301,1.0,-999.0,87,0.00,,,2.87,,2013-01-13 09:32:00,
2013-01-13 03:42:00,39.0,35.0,-100.00,WNW,301,1.0,-999.0,87,0.00,,,2.87,,2013-01-13 09:42:00,
2013-01-13 03:52:00,39.0,35.0,-100.00,WNW,301,1.0,-999.0,87,0.00,,,2.87,,2013-01-13 09:52:00,
2013-01-13 04:00:00,38.0,34.0,-100.00,NW,305,5.0,-999.0,87,0.00,,,2.87,,2013-01-13 10:00:00,
2013-01-13 04:32:00,38.0,34.0,-100.00,NW,305,5.0,-999.0,87,0.00,,,2.87,,2013-01-13 10:32:00,
2013-01-13 04:42:00,38.0,34.0,-100.00,NW,305,5.0,-999.0,87,0.00,,,2.87,,2013-01-13 10:42:00,
2013-01-13 04:52:00,38.0,34.0,-100.00,NW,305,5.0,-999.0,87,0.00,,,2.87,,2013-01-13 10:52:00,
2013-01-13 05:00:00,36.0,33.0,-100.00,WNW,296,4.0,-999.0,89,0.00,,,2.87,,2013-01-13 11:00:00,
2013-01-13 05:32:00,36.0,33.0,-100.00,WNW,296,4.0,-999.0,89,0.00,,,2.87,,2013-01-13 11:32:00,
2013-01-13 05:42:00,36.0,33.0,-100.00,WNW,296,4.0,-999.0,89,0.00,,,2.87,,2013-01-13 11:42:00,
2013-01-13 05:53:00,36.0,33.0,-100.00,WNW,296,4.0,-999.0,89,0.00,,,2.87,,2013-01-13 11:53:00,
2013-01-13 06:00:00,35.0,33.0,-100.00,ESE,106,1.0,-999.0,92,0.00,,,2.87,,2013-01-13 12:00:00,
2013-01-13 06:33:00,35.0,33.0,-100.00,ESE,106,1.0,-999.0,92,0.00,,,2.87,,2013-01-13 12:33:00,
2013-01-13 06:42:00,35.0,33.0,-100.00,ESE,106,1.0,-999.0,92,0.00,,,2.87,,2013-01-13 12:42:00,
2013-01-13 06:53:00,35.0,33.0,-100.00,ESE,106,1.0,-999.0,92,0.00,,,2.87,,2013-01-13 12:53:00,
2013-01-13 08:00:00,34.0,31.0,-100.00,WNW,301,5.0,-999.0,88,0.00,,,2.82,,2013-01-13 14:00:00,
2013-01-13 08:33:00,34.0,31.0,-100.00,WNW,301,5.0,-999.0,88,0.00,,,2.82,,2013-01-13 14:33:00,
2013-01-13 08:43:00,34.0,31.0,-100.00,WNW,301,5.0,-999.0,88,0.00,,,2.82,,2013-01-13 14:43:00,
2013-01-13 08:53:00,34.0,31.0,-100.00,WNW,301,5.0,-999.0,88,0.00,,,2.82,,2013-01-13 14:53:00,
2013-01-13 09:00:00,32.0,27.0,-100.00,WNW,299,9.0,-999.0,83,0.00,,,2.80,,2013-01-13 15:00:00,
2013-01-13 09:33:00,32.0,27.0,-100.00,WNW,299,9.0,-999.0,83,0.00,,,2.80,,2013-01-13 15:33:00,
2013-01-13 09:43:00,32.0,27.0,-100.00,WNW,299,9.0,-999.0,83,0.00,,,2.80,,2013-01-13 15:43:00,
2013-01-13 09:53:00,32.0,27.0,-100.00,WNW,299,9.0,-999.0,83,0.00,,,2.80,,2013-01-13 15:53:00,
2013-01-13 10:00:00,32.0,27.0,-100.00,WNW,301,8.0,-999.0,81,0.00,,,2.80,,2013-01-13 16:00:00,
2013-01-13 10:33:00,32.0,27.0,-100.00,WNW,301,8.0,-999.0,81,0.00,,,2.80,,2013-01-13 16:33:00,
2013-01-13 10:43:00,32.0,27.0,-100.00,WNW,301,8.0,-999.0,81,0.00,,,2.80,,2013-01-13 16:43:00,
2013-01-13 10:53:00,32.0,27.0,-100.00,WNW,301,8.0,-999.0,81,0.00,,,2.80,,2013-01-13 16:53:00,
2013-01-13 11:00:00,33.0,27.0,-100.00,WNW,298,7.0,-999.0,77,0.00,,,2.79,,2013-01-13 17:00:00,
2013-01-13 11:33:00,33.0,27.0,-100.00,WNW,298,7.0,-999.0,77,0.00,,,2.79,,2013-01-13 17:33:00,
2013-01-13 11:43:00,33.0,27.0,-100.00,WNW,298,7.0,-999.0,77,0.00,,,2.79,,2013-01-13 17:43:00,
2013-01-13 11:53:00,33.0,27.0,-100.00,WNW,298,7.0,-999.0,77,0.00,,,2.79,,2013-01-13 17:53:00,
2013-01-13 12:00:00,34.0,27.0,-100.00,NW,304,7.0,-999.0,76,0.00,,,2.77,,2013-01-13 18:00:00,
2013-01-13 12:33:00,34.0,27.0,-100.00,NW,304,7.0,-999.0,76,0.00,,,2.77,,2013-01-13 18:33:00,
2013-01-13 12:43:00,34.0,27.0,-100.00,NW,304,7.0,-999.0,76,0.00,,,2.77,,2013-01-13 18:43:00,
2013-01-13 12:53:00,34.0,27.0,-100.00,NW,304,7.0,-999.0,76,0.00,,,2.77,,2013-01-13 18:53:00,
2013-01-13 13:00:00,38.0,28.0,-100.00,WNW,298,4.0,-999.0,69,0.00,,,2.76,,2013-01-13 19:00:00,
2013-01-13 13:33:00,38.0,28.0,-100.00,WNW,298,4.0,-999.0,69,0.00,,,2.76,,2013-01-13 19:33:00,
2013-01-13 13:43:00,38.0,28.0,-100.00,WNW,298,4.0,-999.0,69,0.00,,,2.76,,2013-01-13 19:43:00,
2013-01-13 13:53:00,38.0,28.0,-100.00,WNW,298,4.0,-999.0,69,0.00,,,2.76,,2013-01-13 19:53:00,
2013-01-13 14:00:00,38.0,29.0,-100.00,WNW,301,6.0,-999.0,69,0.00,,,2.70,,2013-01-13 20:00:00,
2013-01-13 14:33:00,38.0,29.0,-100.00,WNW,301,6.0,-999.0,69,0.00,,,2.70,,2013-01-13 20:33:00,
2013-01-13 14:43:00,38.0,29.0,-100.00,WNW,301,6.0,-999.0,69,0.00,,,2.70,,2013-01-13 20:43:00,
2013-01-13 14:53:00,38.0,29.0,-100.00,WNW,301,6.0,-999.0,69,0.00,,,2.70,,2013-01-13 20:53:00,
2013-01-13 15:00:00,40.0,31.0,-100.00,WNW,297,2.0,-999.0,70,0.00,,,1.10,,2013-01-13 21:00:00,
2013-01-13 15:33:00,40.0,31.0,-100.00,WNW,297,2.0,-999.0,70,0.00,,,1.10,,2013-01-13 21:33:00,
2013-01-13 15:43:00,40.0,31.0,-100.00,WNW,297,2.0,-999.0,70,0.00,,,1.10,,2013-01-13 21:43:00,
2013-01-13 15:53:00,40.0,31.0,-100.00,WNW,297,2.0,-999.0,70,0.00,,,1.10,,2013-01-13 21:53:00,
2013-01-13 16:00:00,39.0,29.0,-100.00,NW,304,2.0,-999.0,67,0.00,,,0.63,,2013-01-13 22:00:00,
2013-01-13 16:33:00,39.0,29.0,-100.00,NW,304,2.0,-999.0,67,0.00,,,0.63,,2013-01-13 22:33:00,
2013-01-13 16:43:00,39.0,29.0,-100.00,NW,304,2.0,-999.0,67,0.00,,,0.63,,2013-01-13 22:43:00,
2013-01-13 16:52:00,39.0,29.0,-100.00,NW,304,2.0,-999.0,67,0.00,,,0.63,,2013-01-13 22:52:00,
2013-01-13 17:00:00,38.0,28.0,-100.00,WNW,285,1.0,-999.0,68,0.00,,,0.03,,2013-01-13 23:00:00,
2013-01-13 17:33:00,38.0,28.0,-100.00,WNW,285,1.0,-999.0,68,0.00,,,0.03,,2013-01-13 23:33:00,
2013-01-13 17:43:00,38.0,28.0,-100.00,WNW,285,1.0,-999.0,68,0.00,,,0.03,,2013-01-13 23:43:00,
2013-01-13 17:53:00,38.0,28.0,-100.00,WNW,285,1.0,-999.0,68,0.00,,,0.03,,2013-01-13 23:53:00,
2013-01-13 19:00:00,34.0,25.0,-100.00,WNW,299,5.0,-999.0,69,0.00,,,0.00,,2013-01-14 01:00:00,
2013-01-13 19:32:00,34.0,25.0,-100.00,WNW,299,5.0,-999.0,69,0.00,,,0.00,,2013-01-14 01:32:00,
2013-01-13 19:42:00,34.0,25.0,-100.00,WNW,299,5.0,-999.0,69,0.00,,,0.00,,2013-01-14 01:42:00,
2013-01-13 19:53:00,34.0,25.0,-100.00,WNW,299,5.0,-999.0,69,0.00,,,0.00,,2013-01-14 01:53:00,
2013-01-13 20:00:00,32.0,24.0,-100.00,WNW,300,6.0,-999.0,72,0.00,,,0.00,,2013-01-14 02:00:00,
2013-01-13 20:32:00,32.0,24.0,-100.00,WNW,300,6.0,-999.0,72,0.00,,,0.00,,2013-01-14 02:32:00,
2013-01-13 20:43:00,32.0,24.0,-100.00,WNW,300,6.0,-999.0,72,0.00,,,0.00,,2013-01-14 02:43:00,
2013-01-13 20:53:00,32.0,24.0,-100.00,WNW,300,6.0,-999.0,72,0.00,,,0.00,,2013-01-14 02:53:00,
2013-01-13 21:00:00,32.0,24.0,-100.00,WNW,294,2.0,-999.0,72,0.00,,,0.00,,2013-01-14 03:00:00,
2013-01-13 21:32:00,32.0,24.0,-100.00,WNW,294,2.0,-999.0,72,0.00,,,0.00,,2013-01-14 03:32:00,
2013-01-13 21:43:00,32.0,24.0,-100.00,WNW,294,2.0,-999.0,72,0.00,,,0.00,,2013-01-14 03:43:00,
2013-01-13 21:53:00,32.0,24.0,-100.00,WNW,294,2.0,-999.0,72,0.00,,,0.00,,2013-01-14 03:53:00,
2013-01-13 22:00:00,31.0,24.0,-100.00,ESE,107,2.0,-999.0,74,0.00,,,0.00,,2013-01-14 04:00:00,
2013-01-13 22:32:00,31.0,24.0,-100.00,ESE,107,2.0,-999.0,74,0.00,,,0.00,,2013-01-14 04:32:00,
2013-01-13 22:42:00,31.0,24.0,-100.00,ESE,107,2.0,-999.0,74,0.00,,,0.00,,2013-01-14 04:42:00,
2013-01-13 22:53:00,31.0,24.0,-100.00,ESE,107,2.0,-999.0,74,0.00,,,0.00,,2013-01-14 04:53:00,
2013-01-13 23:00:00,30.0,22.0,-100.00,East,83,0.0,-999.0,70,0.00,,,0.00,,2013-01-14 05:00:00,
2013-01-13 23:33:00,30.0,22.0,-100.00,East,83,0.0,-999.0,70,0.00,,,0.00,,2013-01-14 05:33:00,
2013-01-13 23:43:00,30.0,22.0,-100.00,East,83,0.0,-999.0,70,0.00,,,0.00,,2013-01-14 05:43:00,
2013-01-13 23:53:00,30.0,22.0,-100.00,East,83,0.0,-999.0,70,0.00,,,0.00,,2013-01-14 05:53:00,